Waarnemingen

Advertentie
Mijn weer
A12-CPP, Nederland (6205): temperatuur & dauwpunt: 23.03.2017 21:00:00 - 29.03.2017 21:00:00 (CEST)A12-CPP, Nederland (6205): windsnelheid & windstoten: 23.03.2017 21:00:00 - 29.03.2017 21:00:00 (CEST)A12-CPP, Nederland (6205): windrichting: 23.03.2017 21:00:00 - 29.03.2017 21:00:00 (CEST)A12-CPP, Nederland (6205): luchtdruk: 23.03.2017 21:00:00 - 29.03.2017 21:00:00 (CEST)A12-CPP, Nederland (6205): zicht: 23.03.2017 21:00:00 - 29.03.2017 21:00:00 (CEST)
Datum & Tijd tt [°C] td [°C] ff [km/u] ff [kn] fx [km/u] fx [kn] dd ppp [hPa] vv [km]
29.03.2017 21:00:00 - - - - - - - - -
29.03.2017 20:00:00 6,4 6,2 16 9 22 12 Z 1019,1 0,3
29.03.2017 19:00:00 6,0 5,7 15 8 14 8 ZZW 1018,9 0,2
29.03.2017 18:00:00 7,1 7,0 11 6 14 8 ZZW 1018,6 0,1
29.03.2017 17:00:00 7,1 7,0 9 5 14 8 ZW 1018,7 0,1
29.03.2017 16:00:00 7,2 6,7 8 4 11 6 WZW 1018,9 1,1
29.03.2017 15:00:00 7,4 6,8 11 6 18 10 W 1019,0 1,4
29.03.2017 14:00:00 7,5 6,8 18 10 22 12 W 1018,7 2,6
29.03.2017 13:00:00 7,6 6,9 24 13 25 14 WZW 1018,3 2,4
29.03.2017 12:00:00 7,5 6,7 28 15 25 14 WZW 1018,1 2,5
29.03.2017 11:00:00 7,8 6,8 31 17 29 16 WZW 1017,4 2,3
29.03.2017 10:00:00 7,6 6,4 28 15 32 18 WZW 1016,9 3,1
29.03.2017 09:00:00 7,3 6,5 29 16 32 18 WZW 1016,1 1,5
29.03.2017 08:00:00 7,1 6,5 24 13 29 16 WZW 1016,0 0,9
29.03.2017 07:00:00 7,5 6,9 29 16 29 16 WZW 1015,7 1,6
29.03.2017 06:00:00 7,0 6,7 24 13 25 14 WZW 1015,4 1,3
29.03.2017 05:00:00 6,8 6,5 26 14 25 14 ZW 1015,4 0,2
29.03.2017 04:00:00 6,4 6,0 21 11 22 12 ZW 1015,6 0,2
29.03.2017 03:00:00 6,4 5,9 22 12 22 12 ZW 1016,0 1,6
29.03.2017 02:00:00 5,9 5,4 22 12 25 14 ZW 1016,4 1,9
29.03.2017 01:00:00 5,4 5,1 22 12 29 16 ZW 1016,6 0,6
29.03.2017 00:00:00 5,4 4,5 31 17 32 18 ZZW 1017,2 2,6
28.03.2017 23:00:00 5,0 4,4 16 9 25 14 ZZW 1017,3 2,2
28.03.2017 22:00:00 5,0 4,2 13 7 14 8 ZZW 1017,5 2,2
28.03.2017 21:00:00 4,8 4,1 21 11 22 12 ZZW 1017,9 2,2
28.03.2017 20:00:00 4,8 4,0 15 8 22 12 ZW 1018,1 2,5
28.03.2017 19:00:00 4,8 3,8 13 7 22 12 ZW 1018,0 3,5
28.03.2017 18:00:00 4,7 3,6 15 8 22 12 ZW 1018,4 3,1
28.03.2017 17:00:00 4,5 2,9 18 10 22 12 ZZW 1018,9 5
28.03.2017 16:00:00 4,5 3,1 13 7 18 10 ZW 1019,2 5
28.03.2017 15:00:00 4,3 2,9 13 7 14 8 ZZW 1019,6 5
28.03.2017 14:00:00 4,2 2,9 9 5 11 6 WZW 1020,1 5
28.03.2017 13:00:00 4,3 3,0 4 2 7 4 - 1020,4 5
28.03.2017 12:00:00 4,0 2,9 9 5 11 6 W 1020,8 4,9
28.03.2017 11:00:00 3,9 3,0 5 3 11 6 NNW 1020,8 3,5
28.03.2017 10:00:00 3,6 3,3 8 4 11 6 W 1020,8 2,3
28.03.2017 09:00:00 3,4 3,0 5 3 11 6 W 1020,5 1,5
28.03.2017 08:00:00 2,8 2,6 5 3 11 6 - 1020,8 0,6
28.03.2017 07:00:00 2,2 1,7 5 3 7 4 W 1021,1 2,4
28.03.2017 06:00:00 2,4 2,4 4 2 11 6 - 1020,9 1,1
28.03.2017 05:00:00 2,5 2,2 8 4 11 6 ZW 1021,4 1,8
28.03.2017 04:00:00 2,5 2,3 8 4 11 6 Z 1021,9 0,8
28.03.2017 03:00:00 2,7 2,6 9 5 14 8 ZZO 1022,4 1,5
28.03.2017 02:00:00 2,9 2,6 5 3 14 8 - 1023,0 1,5
28.03.2017 01:00:00 3,0 2,5 9 5 11 6 Z 1023,3 1,9
28.03.2017 00:00:00 3,0 2,9 8 4 11 6 ONO 1023,7 1,3
27.03.2017 23:00:00 3,6 3,6 4 2 7 4 - 1024,1 1,1
27.03.2017 22:00:00 3,7 3,5 4 2 7 4 - 1024,1 1,4
27.03.2017 21:00:00 3,8 3,4 2 1 11 6 - 1024,2 10
27.03.2017 20:00:00 3,7 3,4 9 5 11 6 - 1024,1 0,6
27.03.2017 19:00:00 4,0 3,5 7 4 11 6 Z 1024,0 0,7
27.03.2017 18:00:00 4,2 3,8 4 2 7 4 - 1024,2 1,9
27.03.2017 17:00:00 4,3 3,5 5 3 7 4 ZZW 1024,6 3,8
27.03.2017 16:00:00 4,5 3,7 5 3 7 4 ZZW 1025,2 10
27.03.2017 15:00:00 4,5 4,0 8 4 11 6 ZZW 1025,8 1,0
27.03.2017 14:00:00 4,5 4,1 9 5 11 6 - 1026,5 2,1
27.03.2017 13:00:00 4,2 3,4 5 3 11 6 - 1026,7 1,9
27.03.2017 12:00:00 4,3 3,5 8 4 11 6 - 1026,9 8
27.03.2017 11:00:00 4,4 3,7 9 5 11 6 ONO 1026,9 5
27.03.2017 10:00:00 4,4 3,7 5 3 11 6 - 1026,7 10
27.03.2017 09:00:00 4,5 3,8 8 4 11 6 NNW 1026,8 2,4
27.03.2017 08:00:00 4,7 3,9 5 3 7 4 NW 1026,5 4,6
27.03.2017 07:00:00 4,6 4,0 5 3 7 4 W 1026,6 10
27.03.2017 06:00:00 4,7 4,2 5 3 11 6 ZW 1026,6 6
27.03.2017 05:00:00 4,8 4,4 9 5 14 8 - 1026,6 3,1
27.03.2017 04:00:00 5,0 4,6 4 2 11 6 - 1027,0 0,8
27.03.2017 03:00:00 5,0 4,7 8 4 14 8 - 1027,4 1,1
27.03.2017 02:00:00 5,3 4,7 13 7 14 8 O 1027,7 4,6
27.03.2017 01:00:00 5,7 4,9 9 5 14 8 ONO 1028,0 10
27.03.2017 00:00:00 5,7 4,9 11 6 14 8 ONO 1028,0 4,3
26.03.2017 23:00:00 6,0 5,2 15 8 14 8 ONO 1028,0 6
26.03.2017 22:00:00 6,3 5,4 16 9 18 10 NO 1028,0 7
26.03.2017 21:00:00 6,3 5,4 11 6 18 10 N 1028,0 10
26.03.2017 20:00:00 6,6 5,5 13 7 22 12 NNO 1028,1 10
26.03.2017 19:00:00 7,0 5,3 16 9 22 12 NO 1027,6 10
26.03.2017 18:00:00 7,3 4,9 18 10 22 12 NO 1027,9 10
26.03.2017 17:00:00 7,3 5,2 16 9 18 10 NO 1027,9 10
26.03.2017 16:00:00 6,6 5,3 15 8 18 10 NNO 1028,4 10
26.03.2017 15:00:00 6,4 5,2 11 6 18 10 NNO 1028,4 10
26.03.2017 14:00:00 6,3 5,1 16 9 18 10 NO 1029,0 10
26.03.2017 13:00:00 7,1 5,6 16 9 18 10 NNO 1029,1 10
26.03.2017 12:00:00 7,0 5,1 15 8 14 8 N 1029,0 10
26.03.2017 11:00:00 7,0 5,3 15 8 18 10 N 1029,0 10
26.03.2017 10:00:00 7,0 5,3 16 9 18 10 N 1029,1 10
26.03.2017 09:00:00 6,7 5,5 16 9 18 10 N 1028,9 10
26.03.2017 08:00:00 6,6 5,3 16 9 18 10 NNO 1028,6 10
26.03.2017 07:00:00 6,6 5,3 16 9 18 10 NNO 1028,3 10
26.03.2017 06:00:00 6,7 5,1 21 11 22 12 NNO 1027,9 10
26.03.2017 05:00:00 6,8 5,1 26 14 25 14 NNO 1028,2 10
26.03.2017 04:00:00 6,6 5,4 18 10 22 12 N 1028,4 10
26.03.2017 03:00:00 6,5 5,6 16 9 18 10 N 1028,9 10
26.03.2017 02:00:00 6,6 5,5 15 8 18 10 N 1029,4 10
26.03.2017 01:00:00 6,6 5,5 13 7 18 10 N 1029,7 10
26.03.2017 00:00:00 6,7 5,4 15 8 14 8 N 1030,0 10
25.03.2017 23:00:00 6,9 5,4 18 10 22 12 N 1030,3 10
25.03.2017 22:00:00 7,0 5,4 16 9 18 10 N 1030,2 10
25.03.2017 21:00:00 7,1 5,2 18 10 18 10 N 1029,7 10
25.03.2017 20:00:00 7,4 5,2 16 9 18 10 NNW 1029,6 10
25.03.2017 19:00:00 7,4 5,4 16 9 18 10 NNW 1029,9 10
25.03.2017 18:00:00 7,1 5,9 15 8 14 8 NNW 1030,3 9
25.03.2017 17:00:00 6,9 5,9 15 8 14 8 NW 1030,8 10
25.03.2017 16:00:00 6,8 5,7 16 9 14 8 WNW 1031,4 10
25.03.2017 15:00:00 6,7 5,5 15 8 14 8 W 1032,4 10
25.03.2017 14:00:00 6,6 5,4 16 9 18 10 W 1033,3 10
25.03.2017 13:00:00 6,6 5,0 15 8 14 8 W 1033,6 10
25.03.2017 12:00:00 6,6 4,7 15 8 14 8 NW 1033,7 10
25.03.2017 11:00:00 6,5 4,5 18 10 18 10 NW 1033,5 10
25.03.2017 10:00:00 6,4 4,3 21 11 18 10 WNW 1033,6 10
25.03.2017 09:00:00 6,4 4,0 18 10 18 10 WNW 1033,7 10
25.03.2017 08:00:00 6,3 3,7 18 10 18 10 W 1033,7 10
25.03.2017 07:00:00 6,3 3,5 22 12 22 12 WNW 1033,6 10
25.03.2017 06:00:00 6,1 4,6 24 13 22 12 W 1033,7 10
25.03.2017 05:00:00 6,0 4,6 22 12 22 12 WZW 1034,2 10
25.03.2017 04:00:00 5,9 4,6 18 10 18 10 WZW 1034,8 10
25.03.2017 03:00:00 5,9 4,6 13 7 11 6 WZW 1035,2 10
25.03.2017 02:00:00 6,0 4,2 11 6 11 6 W 1035,2 10
25.03.2017 01:00:00 6,0 4,0 13 7 11 6 NW 1035,1 10
25.03.2017 00:00:00 6,0 3,7 13 7 14 8 W 1035,2 10
24.03.2017 23:00:00 5,9 3,5 13 7 14 8 W 1035,3 10
24.03.2017 22:00:00 5,9 3,3 13 7 14 8 WZW 1035,4 10
24.03.2017 21:00:00 5,9 3,1 9 5 11 6 W 1035,2 10
24.03.2017 20:00:00 5,8 2,9 9 5 11 6 WNW 1034,8 10
24.03.2017 19:00:00 5,9 2,9 9 5 11 6 WNW 1034,8 10
24.03.2017 18:00:00 5,8 2,9 8 4 11 6 W 1034,8 10
24.03.2017 17:00:00 5,8 2,8 8 4 11 6 ZW 1034,9 10
24.03.2017 16:00:00 5,9 2,9 4 2 7 4 - 1035,1 10
24.03.2017 15:00:00 5,9 2,8 4 2 7 4 - 1035,2 10
24.03.2017 14:00:00 5,7 2,9 8 4 11 6 Z 1035,1 10
24.03.2017 13:00:00 5,4 2,6 8 4 14 8 ZO 1034,6 10
24.03.2017 12:00:00 5,5 2,5 8 4 14 8 - 1034,5 10
24.03.2017 11:00:00 5,3 2,4 15 8 14 8 O 1033,9 10
24.03.2017 10:00:00 5,3 2,0 18 10 18 10 O 1033,5 10
24.03.2017 09:00:00 5,3 1,7 21 11 22 12 ONO 1033,0 10
24.03.2017 08:00:00 5,3 1,5 24 13 22 12 ONO 1032,6 10
24.03.2017 07:00:00 5,3 1,5 24 13 25 14 ONO 1031,8 10
24.03.2017 06:00:00 5,3 1,3 22 12 22 12 ONO 1031,7 10
24.03.2017 05:00:00 5,3 1,4 24 13 25 14 ONO 1031,3 10
24.03.2017 04:00:00 5,3 1,2 22 12 25 14 ONO 1031,2 10
24.03.2017 03:00:00 5,3 1,1 26 14 25 14 ONO 1030,9 10
24.03.2017 02:00:00 5,3 0,9 28 15 29 16 ONO 1030,6 10
24.03.2017 01:00:00 5,3 0,5 29 16 29 16 ONO 1030,2 10
24.03.2017 00:00:00 5,3 0,3 31 17 32 18 ONO 1030,0 10
23.03.2017 23:00:00 5,3 -0,1 35 19 36 19 ONO 1029,4 10
23.03.2017 22:00:00 5,3 -0,1 37 20 40 21 ONO 1029,0 10
23.03.2017 21:00:00 - - - - - - - - -

tt = temperatuur
td = dauwpunt
ff = windsnelheid
fx = windstoten
dd = windrichting
ppp = luchtdruk
vv = zicht

Weerstations in de omgeving